Location: Newark
(35.2161°N, 26.1013°E)
Time: 01:09:19
(UTC+00:00)

BEESAT 2 - Pass Details

Date: 25 January 2020
Orbit: 493 x 534 km, 64.9° (Epoch: 26 February)

Event Time Altitude Azimuth Distance (km) Brightness Sun altitude
Exits shadow 02:40:53 11° 41° (NE) 1,754 ? -32.4°
Maximum altitude 02:41:12 11° 46° (NE) 1,748 ? -32.3°
Drops below altitude 10° 02:42:06 10° 59° (ENE) 1,784 ? -32.2°
Sets 02:46:06 0° 100° (E) 2,663 ? -31.3°
